Location: Peterborough
(44.3091°N, 78.3197°W)
Time: 06:54:58
(UTC-04:00)

Vanguard 2 - Pass Details

Date: 23 March 2023
Orbit: 552 x 2926 km, 32.9° (Epoch: 04 June)

Event Time Altitude Azimuth Distance (km) Brightness Sun altitude
Rises 08:18:30 0° 241° (WSW) 6,702 11.9 11.2°
Reaches altitude 10° 08:23:29 10° 236° (SW) 5,537 11.5 12.0°
Maximum altitude 08:38:03 45° 172° (S) 2,745 10.8 14.6°
Drops below altitude 10° 08:47:48 10° 104° (ESE) 3,776 14.0 16.3°
Sets 08:50:31 0° 98° (E) 4,473 13.2 16.8°
